This is the latest recevied weather packets stored in our database for station/object MKSRDG. If no packets are shown the sender has not sent any weather packets the latest 10 day(s).
| Time | Temp. | Humidity | Pressure | Rain* | Wind** | Luminosity | Snow |
|---|---|---|---|---|---|---|---|
| 1777241410 | 16.67° C | 40% | 1010.3 hPa | 0 mm | - | 847 W/m² | - |
| 1777240510 | 16.67° C | 44% | 1010.2 hPa | 0 mm | - | 875 W/m² | - |
| 1777239610 | 16.67° C | 42% | 1010.1 hPa | 0 mm | - | 893 W/m² | - |
| 1777238710 | 16.67° C | 46% | 1010.2 hPa | 0 mm | - | 912 W/m² | - |
| 1777237810 | 16.67° C | 46% | 1010.2 hPa | 0 mm | - | 925 W/m² | - |
| 1777236910 | 16.11° C | 46% | 1010.1 hPa | 0 mm | - | 933 W/m² | - |
| 1777236010 | 15.56° C | 46% | 1010 hPa | 0 mm | - | 942 W/m² | - |
| 1777235110 | 15.56° C | 46% | 1010 hPa | 0 mm | - | 944 W/m² | - |
| 1777234210 | 15.56° C | 48% | 1010.2 hPa | 0 mm | - | 944 W/m² | - |
| 1777233310 | 15° C | 44% | 1010.2 hPa | 0 mm | - | 937 W/m² | - |
| 1777232410 | 14.44° C | 49% | 1010.4 hPa | 0 mm | - | 932 W/m² | - |
| 1777231510 | 14.44° C | 48% | 1010.4 hPa | 0 mm | - | 919 W/m² | - |
| 1777230610 | 14.44° C | 49% | 1010.4 hPa | 0 mm | - | 902 W/m² | - |
| 1777229710 | 13.89° C | 47% | 1010.3 hPa | 0 mm | - | 884 W/m² | - |
| 1777228810 | 13.89° C | 45% | 1010.3 hPa | 0 mm | - | 867 W/m² | - |
| 1777227910 | 14.44° C | 46% | 1010.3 hPa | 0 mm | - | 846 W/m² | - |
| 1777227010 | 13.33° C | 45% | 1010.2 hPa | 0 mm | - | 814 W/m² | - |
| 1777226110 | 13.33° C | 51% | 1010.1 hPa | 0 mm | - | 779 W/m² | - |
| 1777225211 | 12.78° C | 54% | 1010 hPa | 0 mm | - | 749 W/m² | - |
| 1777224310 | 12.78° C | 52% | 1009.9 hPa | 0 mm | - | 708 W/m² | - |
| 1777223411 | 11.11° C | 57% | 1009.9 hPa | 0 mm | - | 673 W/m² | - |
| 1777222511 | 11.11° C | 54% | 1009.8 hPa | 0 mm | - | 631 W/m² | - |
| 1777221611 | 10.56° C | 55% | 1009.7 hPa | 0 mm | - | 589 W/m² | - |
| 1777220711 | 10.56° C | 57% | 1009.6 hPa | 0 mm | - | 543 W/m² | - |
| 1777219811 | 9.44° C | 59% | 1009.7 hPa | 0 mm | - | 494 W/m² | - |
* Rain latest hour (hover to see other rain measurements)
** Current wind speed in m/s (hover to see current wind gust speed)